Weather History for Springfield, MO

Change the Weather History Date:

Wednesday, June 19, 2013

  Actual Average Record
Temperature  
Mean Temperature 75 °F 74 °F  
Max Temperature 87 °F 85 °F 100 °F (1953)
Min Temperature 62 °F 64 °F 49 °F (1912)
Degree Days  
Heating Degree Days 0 0  
Month to date heating degree days 14 7  
Since 1 June heating degree days 14 7  
Since 1 July heating degree days 4508 4576  
Cooling Degree Days 10 10  
Month to date cooling degree days 121 144  
Year to date cooling degree days 248 259  
Since 1 June cooling degree days 121 144  
Growing Degree Days 24 (Base 50)    
Moisture  
Dew Point 63 °F    
Average Humidity 71    
Maximum Humidity 93    
Minimum Humidity 48    
Precipitation  
Precipitation 0.00 in 0.16 in 2.11 in (2008)
Month to date precipitation 2.08 3.08  
Year to date precipitation 25.80 21.11  
Snow  
Snow 0.00 in - - ()
Month to date snowfall 0.0  
Since 1 June snowfall 0.0  
Since 1 July snowfall 12.7  
Snow Depth 0.00 in    
Sea Level Pressure  
Sea Level Pressure 30.00 in    
Wind  
Wind Speed 5 mph (SE)    
Max Wind Speed 13 mph    
Max Gust Speed 17 mph    
Visibility 10 miles    
Events      
T = Trace of Precipitation, MM = Missing Value Source: NWS Daily Summary

Daily Weather History Graph

Daily Weather History Graph

Search for Another Location

Airport:

Trip Planner

Search our weather history database for the weather conditions in past years. The results will help you decide how hot, cold, wet, or windy it might be!

Date:

Astronomy

Jun. 19, 2013 Rise Set
Actual Time 5:53 AM CDT 8:36 PM CDT
Civil Twilight 5:22 AM CDT 9:07 PM CDT
Nautical Twilight 4:43 AM CDT 9:46 PM CDT
Astronomical Twilight 3:59 AM CDT 10:30 PM CDT
Moon 4:33 PM CDT (6/19) 2:33 AM CDT (6/19)
Length of Visible Light 15h 45m
Length of Day
14h 43m
Waxing Gibbous, 80% of the Moon is Illuminated
Jun 19
Waxing Gibbous
Jun 23
Full
Jun 29
Last Quarter
Jul 8
New
Jul 15
First Quarter

Hourly Weather History & Observations

Time (CDT) Temp. Heat Index Dew Point Humidity Pressure Visibility Wind Dir Wind Speed Gust Speed Precip Events Conditions
12:52 AM 66.0 °F - 61.0 °F 84% 29.99 in 10.0 mi Calm Calm - N/A   Clear
1:52 AM 64.9 °F - 62.1 °F 90% 30.00 in 10.0 mi NE 3.5 mph - N/A   Clear
2:52 AM 63.0 °F - 61.0 °F 93% 30.00 in 10.0 mi East 3.5 mph - N/A   Clear
3:52 AM 63.0 °F - 60.1 °F 90% 30.00 in 10.0 mi Calm Calm - N/A   Clear
4:52 AM 64.0 °F - 61.0 °F 90% 30.00 in 10.0 mi Calm Calm - N/A   Clear
5:52 AM 63.0 °F - 60.1 °F 90% 30.01 in 10.0 mi ESE 4.6 mph - N/A   Clear
6:52 AM 64.9 °F - 61.0 °F 87% 30.03 in 10.0 mi Calm Calm - N/A   Clear
7:52 AM 71.1 °F - 62.1 °F 73% 30.03 in 10.0 mi SE 6.9 mph - N/A   Clear
8:52 AM 75.0 °F - 61.0 °F 62% 30.04 in 10.0 mi SE 6.9 mph - N/A   Clear
9:52 AM 79.0 °F - 63.0 °F 58% 30.04 in 10.0 mi South 4.6 mph - N/A   Clear
10:52 AM 81.0 °F 82.2 °F 63.0 °F 54% 30.04 in 10.0 mi Calm Calm - N/A   Clear
11:52 AM 82.9 °F 83.7 °F 62.1 °F 49% 30.03 in 10.0 mi Calm Calm - N/A   Clear
12:52 PM 84.0 °F 85.4 °F 64.0 °F 51% 30.02 in 10.0 mi SE 4.6 mph - N/A   Scattered Clouds
1:52 PM 84.0 °F 84.5 °F 62.1 °F 47% 30.01 in 10.0 mi North - - N/A   Scattered Clouds
2:52 PM 86.0 °F 87.3 °F 64.0 °F 48% 30.00 in 10.0 mi South 6.9 mph - N/A   Overcast
3:52 PM 84.9 °F 85.9 °F 63.0 °F 48% 29.99 in 10.0 mi ESE 10.4 mph - N/A   Mostly Cloudy
4:52 PM 84.9 °F 85.9 °F 63.0 °F 48% 29.98 in 10.0 mi SSE 8.1 mph - N/A   Clear
5:52 PM 84.9 °F 85.9 °F 63.0 °F 48% 29.97 in 10.0 mi SSE 11.5 mph - N/A   Partly Cloudy
6:52 PM 82.9 °F 84.4 °F 64.0 °F 53% 29.97 in 10.0 mi South 6.9 mph - N/A   Scattered Clouds
7:52 PM 81.0 °F 82.7 °F 64.9 °F 58% 29.97 in 10.0 mi ESE 8.1 mph - N/A   Clear
8:52 PM 77.0 °F - 64.0 °F 64% 29.97 in 10.0 mi ESE 9.2 mph - N/A   Clear
9:52 PM 75.0 °F - 64.0 °F 69% 29.99 in 10.0 mi SE 6.9 mph - N/A   Clear
10:52 PM 73.0 °F - 64.0 °F 73% 30.01 in 10.0 mi SSE 5.8 mph - N/A   Clear
11:52 PM 72.0 °F - 64.9 °F 78% 30.01 in 10.0 mi SSE 6.9 mph - N/A   Clear